FW8724 Weather Reports


time (UTC)temp
C
wind
direction
speed
KPH
gust
KPH
rain 1hr
cm
rain 24hr
cm
rain mn
cm
humidity
%
barometer
mb
20260508001607 7 241 1.6 4.8 0.15 1.63 1.63 92 1002.9
20260508000047 7 221 3.2 11.3 0.10 1.57 1.57 91 1002.9
20260507234547 8 272 14.5 17.7 0.03 1.47 1.47 89 1002.8
20260507233046 9 249 4.8 11.3 0.00 1.47 1.47 91 1002.1
20260507231545 9 212 6.4 14.5 0.00 1.47 1.47 90 1002.1
20260507230044 11 212 19.3 33.8 0.00 1.47 1.47 84 1001.8
20260507224547 12 182 9.7 22.5 0.00 1.47 1.47 86 1001.2
20260507223039 12 153 16.1 20.9 0.00 1.47 1.47 86 1001.1
20260507221538 12 110 14.5 29.0 0.00 1.47 1.47 87 1001.0
20260507220048 12 139 14.5 29.0 0.00 1.47 1.47 87 1001.0
20260507214548 12 143 16.1 25.7 0.00 1.47 1.47 87 1001.1
20260507213044 12 134 17.7 33.8 0.00 1.47 1.47 88 1000.8
20260507211539 12 131 17.7 38.6 0.00 1.47 1.47 88 1000.8
20260507210041 12 146 19.3 32.2 0.03 1.47 1.47 88 1001.0
20260507204552 12 138 19.3 37.0 0.03 1.47 1.47 88 1000.9
20260507203048 12 158 17.7 32.2 0.15 1.47 1.47 88 1000.8
20260507201542 12 148 22.5 35.4 0.30 1.47 1.47 88 1000.4
20260507200043 12 124 22.5 38.6 0.33 1.45 1.45 89 1000.5
20260507194541 12 145 27.4 40.2 0.38 1.45 1.45 89 1000.9
20260507193039 12 91 24.1 38.6 0.38 1.32 1.32 89 1001.5
20260507191538 12 145 19.3 27.4 0.36 1.17 1.17 89 1003.1
20260507190052 12 121 19.3 30.6 0.48 1.12 1.12 89 1003.0
20260507184548 12 142 14.5 29.0 0.66 1.07 1.07 89 1003.0
20260507183044 12 148 8.0 24.1 0.79 0.91 0.91 89 1003.5
20260507181540 12 139 20.9 35.4 0.81 0.81 0.81 89 1003.6
20260507180039 12 193 9.7 22.5 0.64 0.64 0.64 90 1004.2
20260507174551 12 203 9.7 17.7 0.41 0.41 0.41 88 1004.3
20260507173046 12 136 14.5 41.8 0.13 0.13 0.13 87 1003.9
20260507171543 12 118 22.5 48.3 0.00 0.00 0.00 85 1002.9
20260507170049 13 139 29.0 51.5 0.00 0.00 0.00 83 1002.7
20260507164539 13 146 24.1 49.9 0.00 0.00 0.00 79 1002.9
20260507163040 13 180 24.1 43.5 0.00 0.00 0.00 79 1003.4
20260507161539 15 133 32.2 70.8 0.00 0.00 0.00 77 1003.3
20260507160046 15 154 27.4 57.9 0.00 0.00 0.00 77 1004.2
20260507154548 15 155 30.6 51.5 0.00 0.00 0.00 75 1004.2
20260507153049 15 164 25.7 51.5 0.00 0.00 0.00 75 1004.5
20260507151540 15 132 24.1 46.7 0.00 0.00 0.00 74 1005.2
20260507150041 15 159 27.4 48.3 0.00 0.00 0.00 76 1005.3
20260507144545 15 151 24.1 48.3 0.00 0.00 0.00 76 1005.7
20260507143047 15 204 24.1 61.2 0.00 0.00 0.00 77 1005.9
20260507141543 15 158 19.3 49.9 0.00 0.00 0.00 79 1006.1
20260507140045 15 164 24.1 53.1 0.00 0.00 0.00 79 1006.2
20260507134544 14 153 16.1 53.1 0.00 0.00 0.00 80 1006.7
20260507133039 14 175 20.9 45.1 0.00 0.00 0.00 81 1006.6
20260507131556 13 166 25.7 48.3 0.00 0.00 0.00 82 1006.8
20260507130101 13 136 27.4 56.3 0.00 0.00 0.00 81 1007.0
20260507124551 13 132 30.6 51.5 0.00 0.00 0.00 81 1007.1
20260507123042 13 186 32.2 54.7 0.00 0.00 0.00 82 1007.4
20260507121540 13 139 32.2 61.2 0.00 0.00 0.00 83 1006.9
20260507120042 13 136 24.1 51.5 0.00 0.00 0.00 82 1007.3
20260507114538 13 144 22.5 45.1 0.00 0.00 0.00 83 1007.6
20260507113038 13 202 24.1 45.1 0.00 0.00 0.00 83 1007.8
20260507111545 13 169 32.2 57.9 0.00 0.00 0.00 82 1008.6
20260507110043 13 234 22.5 49.9 0.00 0.00 0.00 82 1009.0
20260507104547 13 124 27.4 56.3 0.00 0.00 0.00 81 1008.0
20260507103046 13 101 29.0 54.7 0.00 0.00 0.00 82 1008.4
20260507101546 13 158 29.0 67.6 0.00 0.00 0.00 82 1008.7
20260507100047 13 153 33.8 64.4 0.00 0.00 0.00 82 1008.9
20260507094546 13 149 30.6 56.3 0.00 0.00 0.00 82 1008.1
20260507093048 13 159 24.1 41.8 0.00 0.00 0.00 82 1008.6
20260507091541 13 155 25.7 49.9 0.00 0.00 0.00 83 1009.6
20260507090039 13 193 32.2 57.9 0.00 0.00 0.00 83 1009.8
20260507084538 13 162 27.4 48.3 0.00 0.00 0.00 83 1009.8
20260507083047 13 160 12.9 22.5 0.00 0.00 0.00 82 1010.7
20260507081548 13 198 14.5 45.1 0.00 0.00 0.00 82 1010.5
20260507080051 13 153 27.4 43.5 0.00 0.00 0.00 81 1009.9
20260507074602 14 152 22.5 45.1 0.00 0.00 0.00 80 1010.4
20260507073039 14 148 16.1 37.0 0.00 0.00 0.00 80 1010.8
20260507071546 13 148 22.5 41.8 0.00 0.00 0.00 79 1011.4
20260507070046 14 165 27.4 40.2 0.00 0.00 0.00 79 1011.4
20260507064544 14 115 22.5 33.8 0.00 0.00 0.00 78 1011.3
20260507063043 13 151 14.5 32.2 0.00 0.00 0.00 77 1011.8
20260507061546 13 133 20.9 40.2 0.00 0.00 0.00 76 1011.6
20260507060040 13 96 22.5 35.4 0.00 0.00 0.00 75 1011.8
20260507054549 14 141 30.6 46.7 0.00 0.00 0.00 73 1011.5
20260507053050 14 98 25.7 40.2 0.00 0.00 0.00 69 1012.3
20260507051545 14 155 20.9 33.8 0.00 0.00 0.00 65 1013.0
20260507050042 14 131 27.4 43.5 0.00 0.00 0.00 65 1013.1
20260507044553 14 131 22.5 38.6 0.00 0.00 0.00 68 1013.5
20260507043049 14 151 24.1 38.6 0.00 0.00 0.00 70 1013.9
20260507041559 14 128 22.5 45.1 0.00 0.00 0.00 69 1014.2
20260507040050 15 135 22.5 38.6 0.00 0.00 0.00 68 1014.8
20260507034557 15 176 24.1 45.1 0.00 0.00 0.00 68 1015.2
20260507033053 14 162 16.1 32.2 0.00 0.00 0.00 69 1015.5
20260507031604 15 177 16.1 33.8 0.00 0.00 0.00 68 1015.9
20260507030053 15 117 11.3 38.6 0.00 0.00 0.00 68 1016.1
20260507024546 15 160 19.3 40.2 0.00 0.00 0.00 68 1016.3
20260507023046 15 111 17.7 32.2 0.00 0.00 0.00 67 1016.3
20260507021543 15 150 19.3 38.6 0.00 0.00 0.00 67 1016.5
20260507020040 15 159 16.1 40.2 0.00 0.00 0.00 67 1016.4
20260507014547 15 152 22.5 48.3 0.00 0.00 0.00 67 1016.4
20260507013038 15 141 20.9 46.7 0.00 0.00 0.00 67 1016.5
20260507011538 15 156 19.3 46.7 0.00 0.00 0.00 68 1016.6
20260507010045 15 129 24.1 46.7 0.00 0.00 0.00 68 1016.8
20260507004543 15 151 12.9 38.6 0.00 0.00 0.00 68 1016.9
20260507003050 15 134 17.7 37.0 0.00 0.00 0.00 68 1016.9